Wind_Speed
16 10 11 12 6 6 5 5 7 2 3 10 12 14 12 15 18 19 21 23 23 25 24 26 25 25 23 22 22 21 22 21 19 17 15 14 13 12 10 11 11 10 9 7
9 14 12 3 4 7 10 9 3 3 2 8 12 14 12 11 19 22 23 24 26 24 26 28 27 26 25 24 23 23 23 23 23 17 15 13 13 12 13 12 11 10 10 9
17 11 6 9 10 12 11 9 7 8 1 10 10 16 7 10 16 18 21 24 27 27 27 30 31 29 27 26 25 24 24 23 23 19 15 13 11 12 13 10 10 9 10 9
14 10 7 13 14 13 15 6 8 6 6 4 2 6 5 6 13 17 23 25 28 29 28 27 31 32 31 29 25 24 24 25 23 23 17 16 13 13 11 10 8 8 7 6
16 11 14 16 15 15 14 5 7 5 9 6 12 6 6 5 10 17 22 26 29 31 31 30 28 30 32 29 26 25 25 26 24 24 22 18 15 12 10 11 11 8 7 6
18 4 12 19 18 7 2 6 8 6 8 11 3 5 6 7 5 8 19 27 29 32 33 32 30 27 29 30 28 25 26 27 26 25 24 24 17 15 12 11 10 9 8 7
15 15 13 12 14 9 13 12 10 10 10 6 6 5 8 6 4 5 6 20 28 31 34 34 33 31 29 30 29 28 28 30 29 27 26 26 23 18 14 12 10 9 8 7
13 13 17 13 18 13 15 18 12 9 11 5 5 5 6 5 4 6 9 8 21 29 32 34 34 34 33 32 31 28 28 31 32 30 28 25 23 19 16 14 11 8 8 7
8 11 6 17 15 14 12 12 15 18 13 9 12 7 11 11 2 6 9 8 14 25 32 34 34 34 34 34 32 31 29 29 32 32 29 27 24 24 18 15 14 11 10 7
9 7 7 8 10 16 18 11 12 11 16 16 10 9 10 8 10 10 5 6 8 17 27 31 33 34 33 34 33 29 28 27 28 31 30 29 25 24 24 17 16 13 12 10
16 11 6 8 13 13 11 18 14 16 13 15 13 10 6 6 10 13 14 6 7 13 23 27 32 32 31 30 31 30 28 25 25 28 27 27 25 24 24 21 20 18 15 13
19 9 13 15 11 7 14 20 23 14 19 12 14 13 13 14 16 17 15 9 8 10 21 23 28 31 31 29 30 30 28 26 27 28 27 26 26 23 22 21 19 18 17 13
9 11 11 10 10 10 12 16 20 24 20 21 15 11 11 15 14 16 15 7 6 12 19 21 26 29 31 31 31 33 33 31 30 30 27 24 25 25 22 21 21 18 19 15
4 14 13 11 1 5 18 17 20 22 17 17 18 20 16 19 18 14 10 5 5 12 20 22 24 27 29 31 37 38 38 33 34 34 28 28 26 25 23 22 22 21 19 17
5 13 14 14 10 9 9 13 19 21 23 23 18 17 15 16 18 9 8 10 11 14 20 25 27 27 29 30 31 38 39 38 37 36 35 32 28 26 24 23 23 22 21 18
3 8 6 13 13 10 13 16 18 15 20 21 21 19 15 26 9 11 11 11 15 18 22 25 25 27 29 31 32 37 41 42 39 37 35 32 30 29 26 24 22 21 21 20
7 6 9 14 10 11 16 17 19 17 17 18 18 18 14 7 8 13 15 12 18 19 21 25 29 30 30 31 33 33 37 40 40 36 35 33 31 31 29 26 24 23 23 22
8 7 7 11 12 18 13 3 7 9 15 9 15 15 6 11 17 20 16 14 15 19 20 23 25 27 26 27 27 29 31 37 40 37 34 33 31 31 30 29 27 24 23 24
13 12 8 12 15 17 19 1 7 8 9 2 7 7 10 14 19 1 12 7 11 14 17 18 23 24 25 27 30 29 30 34 36 37 34 31 31 30 30 31 29 26 25 25
16 14 12 12 17 23 14 7 7 5 9 3 6 6 8 13 9 3 16 21 16 10 15 18 22 24 27 28 29 31 33 34 37 37 34 31 30 29 29 29 29 27 26 25
12 12 16 14 15 14 2 7 3 11 2 12 12 11 12 8 12 28 28 22 16 11 10 16 22 27 28 28 29 31 33 37 38 37 34 30 30 28 27 27 29 29 27 23
15 13 13 16 20 23 4 3 7 7 10 14 14 15 16 18 20 21 21 15 12 8 7 11 17 22 25 28 30 36 38 37 38 38 34 31 31 30 29 29 30 30 28 28
14 12 10 9 7 8 5 6 4 9 13 14 17 18 18 20 19 19 13 8 7 6 7 11 14 20 24 27 34 36 35 38 39 38 36 33 32 32 31 32 32 32 31 25
4 7 9 14 6 2 6 2 6 12 14 14 16 18 18 19 18 14 7 4 1 5 12 14 16 18 20 23 25 23 30 37 39 39 38 36 34 34 34 32 33 30 28 29
13 5 9 16 17 8 5 5 15 14 11 13 16 16 17 18 16 10 4 1 3 5 8 14 17 19 19 20 23 26 29 33 36 32 32 33 35 36 35 34 31 29 28 28
18 14 12 10 6 7 5 14 12 13 12 14 16 17 15 13 14 7 1 2 4 6 6 8 10 19 24 23 24 25 25 29 33 34 30 25 25 30 31 31 31 33 31 33
Wind_Direction
194 218 216 207 216 344 219 256 256 246 137 258 252 267 275 188 213 210 200 197 196 201 195 193 194 194 195 197 199 199 196 199 198 206 213 219 218 221 223 216 221 214 205 205
181 225 230 307 215 225 224 248 241 98 200 249 283 278 276 211 214 212 204 198 200 198 196 196 196 196 197 199 200 201 203 205 208 206 209 214 219 218 230 228 221 208 219 220
225 218 215 223 220 241 236 272 327 339 255 248 284 271 241 222 211 218 214 207 203 198 199 199 201 201 201 203 203 202 204 206 208 202 204 208 208 208 223 219 224 226 224 226
236 215 219 223 242 243 267 64 294 289 257 324 258 301 257 172 204 208 207 208 207 202 203 204 203 204 205 206 206 204 207 211 211 210 208 201 202 206 216 213 217 223 241 237
221 205 225 237 240 243 262 341 301 289 265 284 210 260 111 168 205 212 213 208 210 208 205 205 205 205 207 205 205 205 209 213 209 214 206 211 203 213 211 205 215 222 241 237
253 220 257 248 242 241 183 228 234 238 270 266 95 252 151 153 206 200 206 212 209 210 208 207 208 205 204 204 205 205 208 213 215 217 217 216 210 202 205 199 219 230 233 241
213 237 224 242 232 219 220 239 243 228 214 247 87 254 308 179 237 247 204 205 212 207 208 207 206 205 203 204 204 205 209 215 218 218 219 219 214 217 210 205 214 216 223 230
211 211 215 200 230 201 220 233 239 232 254 235 141 248 138 79 336 274 251 244 202 210 210 208 205 205 204 204 203 203 209 214 217 218 218 217 212 216 217 212 209 214 233 235
200 242 140 229 212 236 186 233 253 279 274 264 268 239 251 256 143 196 242 218 215 206 206 207 204 204 205 206 205 205 208 214 212 214 215 215 212 210 214 213 219 225 232 237
222 258 195 143 224 236 255 227 222 230 256 261 259 239 278 285 299 315 214 255 242 214 204 203 201 201 204 206 206 205 208 216 212 207 212 214 212 214 217 218 224 219 224 225
233 228 177 173 206 220 197 232 240 270 241 246 254 253 272 313 297 311 312 287 268 213 198 198 199 198 201 202 202 202 202 203 203 201 207 206 207 210 216 220 230 231 229 227
219 241 237 222 222 246 255 214 224 226 232 240 269 277 300 302 293 312 298 283 289 219 192 195 196 194 196 198 196 195 196 196 200 202 205 206 209 206 207 209 216 222 227 225
174 221 234 228 196 209 236 240 237 231 242 249 255 258 273 287 282 289 283 281 244 196 183 191 193 193 193 195 193 193 195 196 194 198 197 199 204 205 203 205 206 211 221 222
247 249 237 247 320 314 204 224 225 243 238 244 248 266 266 281 287 289 239 206 224 196 192 194 193 193 193 195 200 199 196 198 196 198 193 197 202 203 202 203 204 213 217 221
260 250 239 262 285 279 267 246 217 230 244 244 258 257 268 268 284 311 299 191 194 192 194 197 197 195 194 195 201 201 201 201 202 204 201 205 204 204 204 208 209 210 216 219
250 260 274 258 247 248 254 250 250 234 247 246 253 267 268 275 328 283 262 212 202 195 200 201 197 196 197 197 200 201 202 204 208 207 208 210 208 206 207 210 212 209 210 216
271 268 245 253 244 254 254 244 242 244 229 243 238 241 258 291 311 301 293 221 215 205 199 199 200 199 200 198 206 204 204 206 209 209 209 212 211 210 208 211 212 209 207 212
268 251 255 262 254 242 252 347 306 290 249 256 274 270 353 311 296 289 284 271 227 212 199 202 199 202 202 198 197 200 201 205 210 213 210 212 214 212 210 210 213 211 210 212
221 257 256 247 245 257 258 157 293 263 250 15 275 289 287 300 297 306 58 13 301 262 230 210 203 194 191 194 196 194 197 199 205 209 211 212 216 212 210 209 212 213 211 213
216 226 247 240 249 251 255 84 342 286 234 54 346 328 318 318 269 211 351 333 319 279 237 217 196 187 187 187 187 190 194 195 199 201 205 210 212 211 210 210 211 213 214 217
209 220 225 228 251 251 353 347 355 229 338 348 342 336 329 310 311 302 316 316 305 292 229 210 196 187 184 180 184 186 193 195 195 197 204 206 208 208 210 209 209 212 213 210
234 215 220 232 242 238 55 209 257 8 340 334 334 330 323 317 310 310 310 309 299 274 225 190 188 189 182 183 187 190 199 193 194 199 204 204 207 206 207 207 208 211 211 211
246 262 285 276 266 148 63 75 48 357 333 332 328 327 323 318 319 318 311 306 294 246 201 182 177 186 182 189 191 192 198 193 195 198 202 203 206 206 209 206 207 208 212 204
240 284 264 263 243 52 304 182 353 341 326 320 323 323 321 319 323 318 309 298 228 183 174 163 166 175 177 186 189 190 199 197 201 199 203 204 208 209 211 211 211 207 207 205
264 346 266 257 265 278 200 13 347 338 332 324 324 320 321 324 323 308 293 319 149 138 150 157 167 169 174 187 195 195 203 203 203 204 204 206 209 212 213 215 212 210 212 212
245 246 247 251 51 318 14 336 330 332 330 335 333 327 325 326 319 303 153 113 103 108 121 134 160 160 164 172 181 191 201 210 209 211 208 207 207 213 209 211 212 213 214 222
Height
1493 1491 1489 1479 1479 1480 1485 1489 1495 1489 1490 1496 1493 1491 1487 1496 1502 1503 1507 1513 1517 1520 1525 1529 1534 1537 1541 1545 1548 1551 1554 1557 1560 1563 1566 1567 1569 1571 1572 1572 1572 1574 1575 1575
1491 1489 1476 1478 1483 1485 1485 1487 1488 1489 1493 1497 1488 1486 1484 1485 1495 1498 1501 1506 1511 1516 1520 1525 1529 1534 1537 1541 1544 1548 1551 1553 1556 1560 1563 1566 1567 1569 1569 1569 1571 1572 1574 1574
1480 1476 1476 1483 1484 1486 1482 1484 1485 1492 1492 1490 1491 1483 1477 1480 1489 1494 1497 1501 1505 1510 1515 1519 1524 1529 1534 1537 1540 1543 1546 1550 1554 1558 1560 1562 1564 1566 1566 1569 1571 1571 1573 1574
1476 1473 1482 1482 1483 1480 1484 1476 1484 1487 1495 1494 1488 1498 1472 1475 1484 1488 1492 1495 1499 1504 1510 1514 1518 1523 1527 1532 1537 1540 1543 1546 1550 1554 1558 1559 1562 1563 1566 1568 1571 1573 1570 1573
1477 1480 1483 1483 1478 1474 1484 1479 1482 1484 1487 1486 1480 1494 1471 1474 1479 1480 1484 1488 1493 1498 1503 1508 1512 1516 1521 1528 1533 1536 1538 1542 1546 1549 1554 1557 1559 1562 1564 1567 1568 1569 1570 1570
1472 1471 1476 1473 1471 1477 1478 1482 1482 1481 1482 1495 1473 1485 1468 1470 1469 1466 1473 1480 1486 1491 1496 1501 1507 1512 1517 1523 1528 1532 1534 1537 1541 1545 1549 1553 1557 1559 1562 1563 1565 1567 1570 1568
1473 1472 1472 1476 1473 1478 1481 1482 1496 1497 1493 1492 1472 1485 1462 1459 1460 1463 1464 1471 1478 1483 1488 1494 1500 1506 1512 1517 1522 1526 1529 1532 1536 1541 1545 1549 1553 1556 1559 1560 1564 1566 1568 1568
1476 1482 1468 1468 1468 1477 1478 1474 1486 1509 1495 1477 1473 1486 1462 1456 1458 1460 1462 1464 1469 1476 1481 1487 1493 1500 1505 1511 1516 1520 1523 1526 1532 1537 1541 1545 1549 1554 1557 1559 1562 1563 1566 1566
1471 1474 1458 1461 1465 1467 1471 1484 1466 1475 1465 1485 1474 1460 1452 1448 1449 1454 1458 1459 1463 1466 1472 1479 1486 1493 1499 1504 1509 1513 1517 1521 1526 1532 1537 1541 1545 1550 1555 1557 1558 1560 1561 1563
1457 1475 1458 1459 1465 1465 1466 1464 1484 1479 1502 1501 1475 1472 1469 1453 1451 1446 1448 1453 1455 1460 1466 1472 1479 1486 1492 1498 1504 1509 1513 1515 1521 1527 1532 1536 1541 1545 1550 1553 1555 1558 1559 1560
1454 1459 1460 1460 1466 1464 1472 1473 1468 1463 1462 1483 1486 1470 1439 1446 1445 1444 1443 1447 1449 1453 1459 1467 1473 1480 1487 1493 1499 1504 1508 1512 1517 1523 1528 1533 1537 1540 1545 1549 1552 1554 1556 1557
1452 1451 1460 1455 1443 1449 1448 1457 1460 1474 1477 1467 1467 1464 1436 1440 1440 1441 1442 1443 1445 1449 1455 1462 1469 1475 1481 1488 1494 1499 1504 1509 1513 1519 1524 1528 1533 1538 1541 1544 1548 1551 1553 1555
1454 1455 1460 1457 1450 1451 1454 1448 1445 1446 1448 1459 1467 1462 1436 1436 1437 1438 1439 1440 1444 1447 1451 1458 1464 1469 1475 1482 1488 1492 1497 1503 1509 1514 1519 1525 1529 1533 1537 1540 1544 1548 1550 1552
1459 1443 1447 1450 1445 1436 1450 1447 1444 1444 1451 1454 1453 1450 1442 1437 1433 1430 1433 1439 1442 1446 1449 1454 1459 1464 1470 1476 1479 1485 1492 1498 1504 1509 1515 1519 1523 1528 1533 1536 1540 1543 1547 1549
1453 1450 1441 1439 1438 1442 1441 1439 1439 1445 1440 1449 1441 1443 1434 1431 1428 1428 1431 1435 1437 1440 1444 1448 1453 1459 1464 1469 1473 1479 1486 1492 1498 1503 1509 1513 1519 1525 1529 1533 1536 1540 1543 1546
1453 1454 1449 1452 1439 1443 1444 1437 1434 1435 1437 1436 1436 1439 1427 1428 1429 1432 1432 1432 1434 1435 1438 1443 1448 1453 1456 1461 1465 1472 1479 1485 1492 1498 1504 1509 1515 1520 1525 1529 1532 1536 1539 1542
1458 1451 1453 1455 1435 1442 1448 1433 1429 1428 1425 1431 1438 1429 1422 1425 1429 1428 1427 1428 1428 1430 1433 1436 1440 1444 1449 1455 1459 1465 1473 1481 1487 1493 1500 1505 1510 1515 1520 1525 1529 1532 1536 1539
1461 1456 1452 1456 1441 1465 1427 1416 1423 1425 1420 1420 1422 1421 1429 1432 1430 1425 1423 1423 1424 1425 1426 1428 1433 1440 1446 1451 1455 1461 1467 1474 1481 1488 1494 1499 1504 1510 1515 1519 1523 1528 1531 1535
1461 1458 1458 1458 1450 1437 1424 1421 1426 1428 1423 1431 1432 1430 1432 1432 1428 1422 1422 1422 1423 1423 1424 1422 1425 1434 1440 1446 1449 1454 1461 1467 1475 1482 1488 1494 1499 1504 1509 1514 1518 1523 1527 1530
1448 1456 1456 1453 1456 1454 1426 1425 1434 1431 1433 1436 1438 1435 1433 1432 1420 1407 1420 1419 1419 1419 1420 1422 1423 1427 1434 1439 1442 1447 1454 1460 1468 1476 1482 1488 1494 1498 1503 1509 1514 1518 1522 1526
1452 1454 1455 1455 1452 1438 1426 1436 1436 1442 1441 1442 1440 1438 1435 1432 1431 1422 1419 1418 1415 1414 1415 1418 1422 1423 1428 1433 1436 1443 1448 1454 1464 1472 1478 1484 1489 1494 1500 1505 1510 1514 1518 1522
1443 1446 1443 1446 1448 1452 1436 1436 1440 1445 1444 1444 1442 1440 1436 1433 1428 1422 1417 1414 1412 1411 1411 1412 1418 1422 1425 1428 1433 1438 1441 1452 1460 1467 1473 1479 1485 1490 1495 1500 1505 1509 1514 1518
1450 1439 1436 1431 1433 1431 1440 1443 1446 1446 1445 1443 1442 1439 1436 1431 1425 1420 1414 1412 1409 1408 1408 1408 1414 1421 1422 1425 1428 1434 1441 1449 1456 1462 1468 1473 1480 1486 1490 1495 1499 1503 1508 1513
1444 1448 1446 1442 1433 1440 1443 1447 1446 1446 1444 1442 1440 1437 1434 1429 1424 1418 1414 1412 1410 1408 1407 1408 1412 1418 1420 1424 1429 1435 1440 1447 1452 1458 1463 1468 1473 1480 1485 1490 1494 1498 1501 1506
1448 1453 1447 1442 1437 1441 1444 1446 1446 1444 1442 1440 1438 1435 1431 1426 1422 1418 1415 1414 1413 1411 1410 1407 1410 1412 1416 1421 1425 1430 1436 1442 1448 1454 1460 1464 1468 1473 1478 1483 1488 1492 1497 1500
1452 1450 1447 1443 1444 1448 1445 1448 1447 1445 1442 1439 1436 1433 1430 1426 1422 1418 1416 1416 1415 1414 1415 1413 1414 1411 1413 1416 1420 1425 1430 1436 1442 1447 1453 1460 1466 1468 1472 1476 1481 1486 1491 1493